Project,Study,Ord_Occ,Event_Num,Cast_ID,Date_Time_UTC,Date_Time_PST,Lat_Dec,Lon_Dec,Sta_ID,Line,Sta,Depth,Pressure,PrQ,Temp1,Temp1Q,Temp2,Temp2Q,TempAve,Salt1,Salt1Q,Salt1_Corr,Salt2,Salt2Q,Salt2_Corr,SaltAve_Corr,Ox1,Ox1Q,Ox1_CruiseCorr,Ox1_StaCorr,Ox2,Ox2Q,Ox2_CruiseCorr,Ox2_StaCorr,OxAve_StaCorr,Ox1uM,Ox1uM_CruiseCorr,Ox1uM_StaCorr,Ox2uM,Ox2uM_CruiseCorr,Ox2uM_StaCorr,OxAveuM_StaCorr,FluorV,FluorQ,EstChl_CruiseCorr,EstChl_StaCorr,ISUSV,ISUSQ,EstNO3_CruiseCorr,EstNO3_StaCorr,SigThetaTS1,SigThetaTS1Q,SigThetaTS2,SigThetaTS2Q,BAT,XMiss,TransQ,pH,pHQ,SPAR,SPARQ,PAR,PARQ,PoT1,PoT2,DynHt,SVA,OxSat1,OxSat2,BTL_Depth,BTL_Temp,SaltB,OxB,OxBuM,Chl-a,Phaeo,NO3,NO2,NH4,PO4,SIL
CalCOFI,2101RL,012,,2101_012u,18-Jan-2021 00:46:05,17-Jan-2021 16:46:05,31.51262,-120.24765,093.3 070.0,093.3,070.0,518.000,522.272,,5.9078,,5.9078,,5.9078,34.3241,,34.3299,34.3179,,34.3199,34.3249,0.2451,,0.2564,0.2565,0.2555,,0.2694,0.2640,0.2603,10.658,11.4170,11.2457,11.111,12.3043,11.5761,11.4109,0.0319,,,, ,, , ,27.0359,,27.0309,,0.6745,84.4811,,,,1.7171E+02,,1.0000E-12,,5.8626,5.8626,0.8704,108.628,3.525,3.674,,,,,,,,,,,,
CalCOFI,2101RL,012,,2101_012u,18-Jan-2021 00:46:08,17-Jan-2021 16:46:08,31.51262,-120.24766,093.3 070.0,093.3,070.0,517.000,521.262,,5.9061,,5.9055,,5.9058,34.3238,,34.3296,34.3172,,34.3192,34.3244,0.2454,,0.2567,0.2568,0.2543,,0.2681,0.2627,0.2598,10.670,11.4296,11.2582,11.057,12.3176,11.5192,11.3887,0.0333,,,, ,, , ,27.0358,,27.0306,,0.6741,84.4892,,,,1.7181E+02,,1.0000E-12,,5.8610,5.8604,0.8704,108.620,3.528,3.656,,,,,,,,,,,,
CalCOFI,2101RL,012,,2101_012u,18-Jan-2021 00:46:09,17-Jan-2021 16:46:09,31.51262,-120.24766,093.3 070.0,093.3,070.0,516.000,520.253,,5.9037,,5.9045,,5.9041,34.3229,,34.3287,34.3169,,34.3189,34.3238,0.2498,,0.2613,0.2614,0.2613,,0.2755,0.2701,0.2658,10.864,11.6326,11.4600,11.361,12.5333,11.8395,11.6498,0.0324,,,, ,, , ,27.0354,,27.0305,,0.6744,84.4844,,,,1.7181E+02,,1.0000E-12,,5.8587,5.8595,0.8704,108.640,3.592,3.756,516,,34.3165,0.260,11.35,,,,,,,
CalCOFI,2101RL,012,,2101_012u,18-Jan-2021 00:46:11,17-Jan-2021 16:46:11,31.51262,-120.24766,093.3 070.0,093.3,070.0,515.000,519.243,,5.9013,,5.9021,,5.9017,34.3221,,34.3279,34.3159,,34.3179,34.3229,0.2477,,0.2591,0.2592,0.2524,,0.2661,0.2607,0.2600,10.771,11.5353,11.3633,10.973,12.4299,11.4306,11.3970,0.0321,,,, ,, , ,27.0350,,27.0301,,0.6743,84.4860,,,,1.7219E+02,,1.0000E-12,,5.8564,5.8572,0.8704,108.656,3.561,3.628,,,,,,,,,,,,
CalCOFI,2101RL,012,,2101_012u,18-Jan-2021 00:46:49,17-Jan-2021 16:46:49,31.51259,-120.24776,093.3 070.0,093.3,070.0,514.000,518.234,,5.9000,,5.9005,,5.9003,34.3210,,34.3268,34.3149,,34.3169,34.3219,0.2499,,0.2614,0.2615,0.2589,,0.2730,0.2676,0.2646,10.865,11.6337,11.4611,11.259,12.5345,11.7320,11.5966,0.0323,,,, ,, , ,27.0343,,27.0294,,0.6741,84.4898,,,,1.7123E+02,,1.0000E-12,,5.8552,5.8557,0.8763,108.706,3.592,3.722,,,,,,,,,,,,
CalCOFI,2101RL,012,,2101_012u,18-Jan-2021 00:48:22,17-Jan-2021 16:48:22,31.51254,-120.24798,093.3 070.0,093.3,070.0,513.000,517.224,,5.8963,,5.8972,,5.8968,34.3207,,34.3265,34.3152,,34.3172,34.3219,0.2460,,0.2574,0.2574,0.2505,,0.2641,0.2587,0.2581,10.695,11.4557,11.2842,10.891,12.3454,11.3442,11.3142,0.0327,,,, ,, , ,27.0346,,27.0301,,0.6741,84.4900,,,,1.5970E+02,,1.0000E-12,,5.8516,5.8525,0.8881,108.668,3.536,3.600,,,,,,,,,,,,
CalCOFI,2101RL,012,,2101_012u,18-Jan-2021 00:48:24,17-Jan-2021 16:48:24,31.51254,-120.24798,093.3 070.0,093.3,070.0,512.000,516.215,,5.8973,,5.8975,,5.8974,34.3208,,34.3266,34.3145,,34.3165,34.3216,0.2481,,0.2596,0.2596,0.2552,,0.2690,0.2637,0.2617,10.787,11.5520,11.3799,11.099,12.4477,11.5634,11.4717,0.0330,,,, ,, , ,27.0345,,27.0294,,0.6741,84.4900,,,,1.6015E+02,,1.0000E-12,,5.8527,5.8529,0.8883,108.660,3.566,3.669,,,,,,,,,,,,
CalCOFI,2101RL,012,,2101_012u,18-Jan-2021 00:48:25,17-Jan-2021 16:48:25,31.51254,-120.24798,093.3 070.0,093.3,070.0,511.000,515.205,,5.8987,,5.8991,,5.8989,34.3207,,34.3265,34.3145,,34.3165,34.3215,0.2500,,0.2616,0.2616,0.2591,,0.2732,0.2678,0.2647,10.870,11.6389,11.4663,11.266,12.5400,11.7394,11.6029,0.0321,,,, ,, , ,27.0342,,27.0293,,0.6741,84.4900,,,,1.6070E+02,,1.0000E-12,,5.8542,5.8546,0.8883,108.679,3.594,3.724,,,,,,,,,,,,
CalCOFI,2101RL,012,,2101_012u,18-Jan-2021 00:48:27,17-Jan-2021 16:48:27,31.51254,-120.24798,093.3 070.0,093.3,070.0,510.000,514.196,,5.9000,,5.9020,,5.9010,34.3206,,34.3264,34.3127,,34.3147,34.3206,0.2532,,0.2649,0.2649,0.2559,,0.2698,0.2644,0.2647,11.010,11.7855,11.6119,11.129,12.6957,11.5950,11.6035,0.0326,,,, ,, , ,27.0340,,27.0275,,0.6741,84.4900,,,,1.6072E+02,,1.0000E-12,,5.8555,5.8576,0.8883,108.685,3.640,3.679,,,,,,,,,,,,
CalCOFI,2101RL,012,,2101_012u,18-Jan-2021 00:48:28,17-Jan-2021 16:48:28,31.51254,-120.24798,093.3 070.0,093.3,070.0,509.000,513.186,,5.9032,,5.9036,,5.9034,34.3192,,34.3250,34.3123,,34.3143,34.3197,0.2580,,0.2699,0.2699,0.2556,,0.2695,0.2641,0.2670,11.221,12.0063,11.8314,11.112,12.9303,11.5771,11.7043,0.0333,,,, ,, , ,27.0324,,27.0269,,0.6741,84.4900,,,,1.6072E+02,,1.0000E-12,,5.8588,5.8592,0.8883,108.823,3.710,3.674,,,,,,,,,,,,
CalCOFI,2101RL,012,,2101_012u,18-Jan-2021 00:48:29,17-Jan-2021 16:48:29,31.51254,-120.24798,093.3 070.0,093.3,070.0,508.000,512.177,,5.9251,,5.9191,,5.9221,34.3158,,34.3216,34.3103,,34.3123,34.3170,0.2532,,0.2649,0.2649,0.2589,,0.2730,0.2676,0.2663,11.011,11.7865,11.6130,11.260,12.6968,11.7331,11.6731,0.0323,,,, ,, , ,27.0270,,27.0234,,0.6741,84.4900,,,,1.6072E+02,,1.0000E-12,,5.8807,5.8748,0.8883,109.345,3.642,3.724,,,,,,,,,,,,
CalCOFI,2101RL,012,,2101_012u,18-Jan-2021 00:48:30,17-Jan-2021 16:48:30,31.51254,-120.24799,093.3 070.0,093.3,070.0,507.000,511.167,,5.9310,,5.9265,,5.9288,34.3159,,34.3217,34.3098,,34.3118,34.3168,0.2551,,0.2669,0.2669,0.2654,,0.2799,0.2744,0.2707,11.094,11.8734,11.6993,11.541,12.7891,12.0292,11.8643,0.0326,,,, ,, , ,27.0263,,27.0221,,0.6741,84.4900,,,,1.6072E+02,,1.0000E-12,,5.8867,5.8823,0.8883,109.398,3.670,3.817,,,,,,,,,,,,
CalCOFI,2101RL,012,,2101_012u,18-Jan-2021 00:48:31,17-Jan-2021 16:48:31,31.51254,-120.24800,093.3 070.0,093.3,070.0,506.000,510.158,,5.9368,,5.9291,,5.9330,34.3161,,34.3219,34.3102,,34.3122,34.3171,0.2609,,0.2730,0.2729,0.2528,,0.2665,0.2612,0.2671,11.347,12.1382,11.9625,10.992,13.0705,11.4506,11.7066,0.0333,,,, ,, , ,27.0258,,27.0220,,0.6741,84.4900,,,,1.6123E+02,,1.0000E-12,,5.8926,5.8849,0.8883,109.448,3.754,3.636,,,,,,,,,,,,
CalCOFI,2101RL,012,,2101_012u,18-Jan-2021 00:48:32,17-Jan-2021 16:48:32,31.51254,-120.24800,093.3 070.0,093.3,070.0,505.000,509.149,,5.9373,,5.9299,,5.9336,34.3161,,34.3219,34.3100,,34.3120,34.3170,0.2579,,0.2698,0.2698,0.2634,,0.2778,0.2723,0.2711,11.214,11.9990,11.8241,11.452,12.9226,11.9354,11.8798,0.0329,,,, ,, , ,27.0257,,27.0218,,0.6741,84.4900,,,,1.6254E+02,,1.0000E-12,,5.8932,5.8858,0.8883,109.443,3.710,3.788,,,,,,,,,,,,
CalCOFI,2101RL,012,,2101_012u,18-Jan-2021 00:48:34,17-Jan-2021 16:48:34,31.51254,-120.24800,093.3 070.0,093.3,070.0,504.000,508.139,,5.9284,,5.9395,,5.9340,34.3168,,34.3226,34.3085,,34.3105,34.3166,0.2591,,0.2711,0.2710,0.2686,,0.2833,0.2778,0.2744,11.269,12.0566,11.8814,11.678,12.9837,12.1736,12.0275,0.0321,,,, ,, , ,27.0274,,27.0194,,0.6741,84.4900,,,,1.6257E+02,,1.0000E-12,,5.8844,5.8955,0.8883,109.259,3.728,3.864,,,,,,,,,,,,
CalCOFI,2101RL,012,,2101_012u,18-Jan-2021 00:48:35,17-Jan-2021 16:48:35,31.51254,-120.24800,093.3 070.0,093.3,070.0,503.000,507.130,,5.9431,,5.9383,,5.9407,34.3139,,34.3197,34.3089,,34.3109,34.3153,0.2658,,0.2781,0.2780,0.2660,,0.2805,0.2751,0.2766,11.558,12.3591,12.1820,11.569,13.3051,12.0588,12.1204,0.0323,,,, ,, , ,27.0232,,27.0198,,0.6741,84.4900,,,,1.6105E+02,,1.0000E-12,,5.8992,5.8944,0.8883,109.652,3.825,3.828,,,,,,,,,,,,
CalCOFI,2101RL,012,,2101_012u,18-Jan-2021 00:48:35,17-Jan-2021 16:48:35,31.51254,-120.24800,093.3 070.0,093.3,070.0,502.000,506.120,,5.9496,,5.9484,,5.9490,34.3120,,34.3178,34.3064,,34.3084,34.3131,0.2626,,0.2747,0.2747,0.2589,,0.2730,0.2676,0.2712,11.419,12.2136,12.0374,11.257,13.1505,11.7299,11.8837,0.0337,,,, ,, , ,27.0209,,27.0166,,0.6746,84.4801,,,,1.5994E+02,,1.0000E-12,,5.9057,5.9045,0.8883,109.866,3.779,3.725,,,,,,,,,,,,
CalCOFI,2101RL,012,,2101_012u,18-Jan-2021 00:48:36,17-Jan-2021 16:48:36,31.51254,-120.24800,093.3 070.0,093.3,070.0,501.000,505.111,,5.9505,,5.9497,,5.9501,34.3112,,34.3170,34.3056,,34.3076,34.3123,0.2664,,0.2787,0.2786,0.2723,,0.2872,0.2817,0.2802,11.583,12.3853,12.2080,11.841,13.3329,12.3454,12.2767,0.0327,,,, ,, , ,27.0201,,27.0158,,0.6743,84.4856,,,,1.5887E+02,,1.0000E-12,,5.9067,5.9059,0.8883,109.921,3.834,3.919,,,,,,,,,,,,
CalCOFI,2101RL,012,,2101_012u,18-Jan-2021 00:48:37,17-Jan-2021 16:48:37,31.51252,-120.24800,093.3 070.0,093.3,070.0,500.000,504.101,,5.9498,,5.9501,,5.9500,34.3092,,34.3150,34.3031,,34.3051,34.3101,0.2726,,0.2852,0.2851,0.2742,,0.2892,0.2837,0.2844,11.854,12.6690,12.4899,11.922,13.6342,12.4308,12.4604,0.0323,,,, ,, , ,27.0186,,27.0138,,0.6755,84.4606,,,,1.5887E+02,,1.0000E-12,,5.9061,5.9064,0.8883,110.050,3.923,3.945,,,,,,,,,,,,
CalCOFI,2101RL,012,,2101_012u,18-Jan-2021 00:48:37,17-Jan-2021 16:48:37,31.51252,-120.24800,093.3 070.0,093.3,070.0,499.000,503.092,,5.9508,,5.9522,,5.9515,34.3074,,34.3132,34.3006,,34.3026,34.3079,0.2737,,0.2864,0.2862,0.2786,,0.2939,0.2883,0.2873,11.902,12.7192,12.5399,12.116,13.6876,12.6352,12.5876,0.0326,,,, ,, , ,27.0170,,27.0115,,0.6746,84.4792,,,,1.5887E+02,,1.0000E-12,,5.9072,5.9086,0.8883,110.189,3.939,4.010,,,,,,,,,,,,
CalCOFI,2101RL,012,,2101_012u,18-Jan-2021 00:48:38,17-Jan-2021 16:48:38,31.51252,-120.24800,093.3 070.0,093.3,070.0,498.000,502.082,,5.9549,,5.9555,,5.9552,34.3057,,34.3115,34.2993,,34.3013,34.3064,0.2749,,0.2876,0.2875,0.2767,,0.2919,0.2863,0.2869,11.956,12.7757,12.5960,12.035,13.7477,12.5499,12.5730,0.0325,,,, ,, , ,27.0151,,27.0100,,0.6747,84.4789,,,,1.5887E+02,,1.0000E-12,,5.9114,5.9119,0.8883,110.355,3.957,3.983,,,,,,,,,,,,
CalCOFI,2101RL,012,,2101_012u,18-Jan-2021 00:48:39,17-Jan-2021 16:48:39,31.51252,-120.24800,093.3 070.0,093.3,070.0,497.000,501.073,,5.9622,,5.9641,,5.9632,34.3053,,34.3111,34.2987,,34.3007,34.3059,0.2758,,0.2886,0.2884,0.2768,,0.2920,0.2864,0.2874,11.995,12.8166,12.6366,12.037,13.7910,12.5520,12.5943,0.0332,,,, ,, , ,27.0139,,27.0085,,0.6742,84.4888,,,,1.5887E+02,,1.0000E-12,,5.9187,5.9206,0.8883,110.466,3.971,3.985,,,,,,,,,,,,
CalCOFI,2101RL,012,,2101_012u,18-Jan-2021 00:48:40,17-Jan-2021 16:48:40,31.51252,-120.24800,093.3 070.0,093.3,070.0,496.000,500.064,,5.9707,,5.9715,,5.9711,34.3052,,34.3110,34.2987,,34.3007,34.3059,0.2771,,0.2899,0.2897,0.2830,,0.2986,0.2930,0.2914,12.050,12.8741,12.6938,12.306,13.8522,12.8355,12.7647,0.0329,,,, ,, , ,27.0128,,27.0075,,0.6741,84.4900,,,,1.5960E+02,,1.0000E-12,,5.9273,5.9281,0.8883,110.565,3.990,4.074,,,,,,,,,,,,
CalCOFI,2101RL,012,,2101_012u,18-Jan-2021 00:48:41,17-Jan-2021 16:48:41,31.51252,-120.24800,093.3 070.0,093.3,070.0,495.000,499.054,,5.9764,,5.9769,,5.9767,34.3029,,34.3087,34.2977,,34.2997,34.3042,0.2806,,0.2936,0.2934,0.2775,,0.2927,0.2872,0.2903,12.203,13.0343,12.8530,12.067,14.0223,12.5836,12.7183,0.0327,,,, ,, , ,27.0102,,27.0060,,0.6741,84.4900,,,,1.6074E+02,,1.0000E-12,,5.9330,5.9336,0.8883,110.799,4.041,3.996,,,,,,,,,,,,
CalCOFI,2101RL,012,,2101_012u,18-Jan-2021 00:48:42,17-Jan-2021 16:48:42,31.51252,-120.24800,093.3 070.0,093.3,070.0,494.000,498.045,,5.9773,,5.9772,,5.9773,34.3008,,34.3066,34.2950,,34.2970,34.3018,0.2780,,0.2909,0.2907,0.2803,,0.2957,0.2901,0.2904,12.088,12.9139,12.7334,12.187,13.8945,12.7101,12.7218,0.0328,,,, ,, , ,27.0084,,27.0039,,0.6751,84.4710,,,,1.6072E+02,,1.0000E-12,,5.9341,5.9339,0.8883,110.956,4.003,4.035,,,,,,,,,,,,
CalCOFI,2101RL,012,,2101_012u,18-Jan-2021 00:48:43,17-Jan-2021 16:48:43,31.51252,-120.24800,093.3 070.0,093.3,070.0,493.000,497.035,,5.9823,,5.9797,,5.9810,34.3008,,34.3066,34.2945,,34.2965,34.3016,0.2799,,0.2928,0.2927,0.2892,,0.3052,0.2995,0.2961,12.171,13.0008,12.8197,12.575,13.9868,13.1190,12.9694,0.0332,,,, ,, , ,27.0078,,27.0032,,0.6743,84.4861,,,,1.6072E+02,,1.0000E-12,,5.9391,5.9365,0.8883,111.006,4.031,4.164,,,,,,,,,,,,
CalCOFI,2101RL,012,,2101_012u,18-Jan-2021 00:48:44,17-Jan-2021 16:48:44,31.51250,-120.24800,093.3 070.0,093.3,070.0,492.000,496.026,,5.9859,,5.9851,,5.9855,34.3012,,34.3070,34.2949,,34.2969,34.3020,0.2807,,0.2937,0.2935,0.2807,,0.2961,0.2906,0.2921,12.206,13.0374,12.8561,12.205,14.0257,12.7290,12.7926,0.0335,,,, ,, , ,27.0077,,27.0028,,0.6741,84.4899,,,,1.5938E+02,,1.0000E-12,,5.9428,5.9420,0.8883,111.012,4.043,4.042,,,,,,,,,,,,
CalCOFI,2101RL,012,,2101_012u,18-Jan-2021 00:48:45,17-Jan-2021 16:48:45,31.51250,-120.24800,093.3 070.0,093.3,070.0,491.000,495.017,,5.9931,,5.9898,,5.9915,34.3016,,34.3074,34.2954,,34.2974,34.3024,0.2785,,0.2914,0.2912,0.2808,,0.2962,0.2907,0.2910,12.109,12.9359,12.7552,12.210,13.9178,12.7343,12.7448,0.0331,,,, ,, , ,27.0071,,27.0026,,0.6739,84.4944,,,,1.5888E+02,,1.0000E-12,,5.9500,5.9468,0.8883,111.058,4.011,4.044,,,,,,,,,,,,
CalCOFI,2101RL,012,,2101_012u,18-Jan-2021 00:48:46,17-Jan-2021 16:48:46,31.51250,-120.24801,093.3 070.0,093.3,070.0,490.000,494.007,,5.9994,,5.9930,,5.9962,34.3017,,34.3075,34.2957,,34.2977,34.3026,0.2857,,0.2989,0.2987,0.2864,,0.3022,0.2966,0.2977,12.423,13.2646,13.0819,12.457,14.2670,12.9946,13.0383,0.0328,,,, ,, , ,27.0064,,27.0024,,0.6743,84.4857,,,,1.6022E+02,,1.0000E-12,,5.9564,5.9501,0.8883,111.122,4.116,4.126,,,,,,,,,,,,
CalCOFI,2101RL,012,,2101_012u,18-Jan-2021 00:48:48,17-Jan-2021 16:48:48,31.51250,-120.24802,093.3 070.0,093.3,070.0,489.000,492.998,,5.9949,,5.9941,,5.9945,34.2990,,34.3048,34.2949,,34.2969,34.3009,0.2948,,0.3084,0.3081,0.2894,,0.3054,0.2997,0.3039,12.820,13.6802,13.4949,12.583,14.7085,13.1274,13.3112,0.0331,,,, ,, , ,27.0048,,27.0017,,0.6741,84.4901,,,,1.6073E+02,,1.0000E-12,,5.9520,5.9512,0.8883,111.250,4.247,4.168,,,,,,,,,,,,
CalCOFI,2101RL,012,,2101_012u,18-Jan-2021 00:48:49,17-Jan-2021 16:48:49,31.51250,-120.24802,093.3 070.0,093.3,070.0,488.000,491.989,,5.9697,,5.9834,,5.9766,34.2902,,34.2960,34.2893,,34.2913,34.2937,0.2965,,0.3102,0.3099,0.2947,,0.3110,0.3053,0.3076,12.894,13.7576,13.5718,12.814,14.7907,13.3709,13.4714,0.0329,,,, ,, , ,27.0010,,26.9985,,0.6741,84.4900,,,,1.6072E+02,,1.0000E-12,,5.9271,5.9407,0.8883,111.565,4.269,4.243,,,,,,,,,,,,
CalCOFI,2101RL,012,,2101_012u,18-Jan-2021 00:48:50,17-Jan-2021 16:48:50,31.51250,-120.24802,093.3 070.0,093.3,070.0,487.000,490.979,,5.9619,,5.9694,,5.9657,34.2877,,34.2935,34.2843,,34.2863,34.2899,0.2996,,0.3135,0.3131,0.3046,,0.3215,0.3157,0.3144,13.027,13.8969,13.7102,13.246,14.9386,13.8261,13.7682,0.0322,,,, ,, , ,27.0000,,26.9963,,0.6741,84.4900,,,,1.5912E+02,,1.0000E-12,,5.9194,5.9268,0.8883,111.635,4.312,4.385,,,,,,,,,,,,
CalCOFI,2101RL,012,,2101_012u,18-Jan-2021 00:48:51,17-Jan-2021 16:48:51,31.51250,-120.24802,093.3 070.0,093.3,070.0,486.000,489.970,,5.9606,,5.9625,,5.9616,34.2874,,34.2932,34.2821,,34.2841,34.2887,0.3059,,0.3201,0.3197,0.3050,,0.3219,0.3161,0.3179,13.304,14.1868,13.9984,13.265,15.2467,13.8462,13.9223,0.0330,,,, ,, , ,26.9999,,26.9955,,0.6741,84.4900,,,,1.5722E+02,,1.0000E-12,,5.9181,5.9200,0.8883,111.627,4.403,4.390,,,,,,,,,,,,
CalCOFI,2101RL,012,,2101_012u,18-Jan-2021 00:48:51,17-Jan-2021 16:48:51,31.51250,-120.24802,093.3 070.0,093.3,070.0,485.000,488.961,,5.9577,,5.9574,,5.9576,34.2860,,34.2918,34.2799,,34.2819,34.2869,0.3098,,0.3241,0.3237,0.3115,,0.3288,0.3230,0.3234,13.472,14.3627,14.1731,13.546,15.4335,14.1423,14.1577,0.0330,,,, ,, , ,26.9991,,26.9943,,0.6741,84.4900,,,,1.5703E+02,,1.0000E-12,,5.9153,5.9151,0.8883,111.682,4.459,4.483,,,,,,,,,,,,
CalCOFI,2101RL,012,,2101_012u,18-Jan-2021 00:48:52,17-Jan-2021 16:48:52,31.51250,-120.24802,093.3 070.0,093.3,070.0,484.000,487.951,,5.9559,,5.9551,,5.9555,34.2849,,34.2907,34.2780,,34.2800,34.2854,0.3098,,0.3241,0.3237,0.3085,,0.3257,0.3198,0.3218,13.473,14.3637,14.1742,13.414,15.4346,14.0032,14.0887,0.0333,,,, ,, , ,26.9984,,26.9931,,0.6741,84.4900,,,,1.5703E+02,,1.0000E-12,,5.9136,5.9128,0.8883,111.732,4.459,4.439,,,,,,,,,,,,
CalCOFI,2101RL,012,,2101_012u,18-Jan-2021 00:48:52,17-Jan-2021 16:48:52,31.51250,-120.24802,093.3 070.0,093.3,070.0,483.000,486.942,,5.9565,,5.9560,,5.9563,34.2822,,34.2880,34.2762,,34.2782,34.2831,0.3093,,0.3236,0.3232,0.3132,,0.3306,0.3248,0.3240,13.452,14.3418,14.1523,13.619,15.4112,14.2193,14.1858,0.0322,,,, ,, , ,26.9962,,26.9915,,0.6741,84.4900,,,,1.5703E+02,,1.0000E-12,,5.9144,5.9139,0.8883,111.924,4.451,4.507,,,,,,,,,,,,
CalCOFI,2101RL,012,,2101_012u,18-Jan-2021 00:48:53,17-Jan-2021 16:48:53,31.51250,-120.24802,093.3 070.0,093.3,070.0,482.000,485.933,,5.9678,,5.9678,,5.9678,34.2819,,34.2877,34.2744,,34.2764,34.2821,0.3104,,0.3248,0.3244,0.3209,,0.3388,0.3329,0.3287,13.498,14.3899,14.2002,13.955,15.4624,14.5734,14.3868,0.0321,,,, ,, , ,26.9946,,26.9886,,0.6741,84.4900,,,,1.5788E+02,,1.0000E-12,,5.9257,5.9257,0.8883,112.079,4.468,4.619,,,,,,,,,,,,
CalCOFI,2101RL,012,,2101_012u,18-Jan-2021 00:48:54,17-Jan-2021 16:48:54,31.51250,-120.24802,093.3 070.0,093.3,070.0,481.000,484.923,,5.9936,,5.9862,,5.9899,34.2818,,34.2876,34.2755,,34.2775,34.2826,0.3064,,0.3206,0.3202,0.3093,,0.3265,0.3207,0.3205,13.326,14.2099,14.0212,13.452,15.2711,14.0433,14.0323,0.0329,,,, ,, , ,26.9913,,26.9872,,0.6741,84.4900,,,,1.5940E+02,,1.0000E-12,,5.9515,5.9441,0.8883,112.408,4.414,4.455,,,,,,,,,,,,
CalCOFI,2101RL,012,,2101_012u,18-Jan-2021 00:48:55,17-Jan-2021 16:48:55,31.51250,-120.24802,093.3 070.0,093.3,070.0,480.000,483.914,,5.9860,,5.9908,,5.9884,34.2823,,34.2881,34.2766,,34.2786,34.2834,0.3078,,0.3220,0.3217,0.3093,,0.3265,0.3207,0.3212,13.385,14.2716,14.0826,13.451,15.3367,14.0422,14.0624,0.0331,,,, ,, , ,26.9926,,26.9875,,0.6741,84.4900,,,,1.6016E+02,,1.0000E-12,,5.9440,5.9488,0.8883,112.260,4.433,4.455,,,,,,,,,,,,
CalCOFI,2101RL,012,,2101_012u,18-Jan-2021 00:48:56,17-Jan-2021 16:48:56,31.51249,-120.24802,093.3 070.0,093.3,070.0,479.000,482.905,,5.9781,,5.9864,,5.9823,34.2824,,34.2882,34.2768,,34.2788,34.2835,0.3122,,0.3266,0.3262,0.3135,,0.3310,0.3251,0.3257,13.575,14.4705,14.2803,13.631,15.5480,14.2319,14.2561,0.0327,,,, ,, , ,26.9936,,26.9882,,0.6741,84.4900,,,,1.5812E+02,,1.0000E-12,,5.9362,5.9445,0.8883,112.140,4.494,4.514,,,,,,,,,,,,
CalCOFI,2101RL,012,,2101_012u,18-Jan-2021 00:48:58,17-Jan-2021 16:48:58,31.51248,-120.24802,093.3 070.0,093.3,070.0,478.000,481.895,,6.0047,,6.0012,,6.0030,34.2842,,34.2900,34.2776,,34.2796,34.2848,0.3082,,0.3225,0.3221,0.3158,,0.3334,0.3275,0.3248,13.401,14.2884,14.0993,13.731,15.3545,14.3373,14.2183,0.0335,,,, ,, , ,26.9917,,26.9870,,0.6744,84.4848,,,,1.5701E+02,,1.0000E-12,,5.9628,5.9593,0.8883,112.339,4.440,4.549,,,,,,,,,,,,
CalCOFI,2101RL,012,,2101_012u,18-Jan-2021 00:48:59,17-Jan-2021 16:48:59,31.51248,-120.24802,093.3 070.0,093.3,070.0,477.000,480.886,,6.0354,,6.0311,,6.0333,34.2848,,34.2906,34.2787,,34.2807,34.2857,0.3079,,0.3221,0.3218,0.3146,,0.3321,0.3263,0.3241,13.392,14.2789,14.0899,13.681,15.3445,14.2846,14.1873,0.0331,,,, ,, , ,26.9883,,26.9841,,0.6741,84.4900,,,,1.5703E+02,,1.0000E-12,,5.9935,5.9892,0.8883,112.681,4.440,4.535,,,,,,,,,,,,
CalCOFI,2101RL,012,,2101_012u,18-Jan-2021 00:49:00,17-Jan-2021 16:49:00,31.51248,-120.24802,093.3 070.0,093.3,070.0,476.000,479.877,,6.0509,,6.0366,,6.0438,34.2870,,34.2928,34.2789,,34.2809,34.2869,0.3065,,0.3207,0.3203,0.3077,,0.3248,0.3190,0.3197,13.329,14.2130,14.0244,13.382,15.2745,13.9695,13.9970,0.0334,,,, ,, , ,26.9881,,26.9835,,0.6741,84.4900,,,,1.5711E+02,,1.0000E-12,,6.0090,5.9948,0.8883,112.704,4.421,4.437,,,,,,,,,,,,
CalCOFI,2101RL,012,,2101_012u,18-Jan-2021 00:49:01,17-Jan-2021 16:49:01,31.51248,-120.24802,093.3 070.0,093.3,070.0,475.000,478.867,,6.0685,,6.0718,,6.0702,34.2890,,34.2948,34.2831,,34.2851,34.2900,0.3008,,0.3147,0.3144,0.3121,,0.3295,0.3236,0.3190,13.082,13.9544,13.7674,13.574,14.9998,14.1718,13.9696,0.0324,,,, ,, , ,26.9874,,26.9824,,0.6741,84.4891,,,,1.5886E+02,,1.0000E-12,,6.0266,6.0299,0.8883,112.771,4.341,4.504,,,,,,,,,,,,
CalCOFI,2101RL,012,,2101_012u,18-Jan-2021 00:49:02,17-Jan-2021 16:49:02,31.51248,-120.24802,093.3 070.0,093.3,070.0,474.000,477.858,,6.0957,,6.1048,,6.1003,34.2917,,34.2975,34.2863,,34.2883,34.2929,0.3004,,0.3143,0.3140,0.3071,,0.3242,0.3184,0.3162,13.062,13.9335,13.7466,13.356,14.9776,13.9421,13.8444,0.0331,,,, ,, , ,26.9861,,26.9807,,0.6741,84.4900,,,,1.5887E+02,,1.0000E-12,,6.0538,6.0629,0.8883,112.912,4.337,4.435,,,,,,,,,,,,
CalCOFI,2101RL,012,,2101_012u,18-Jan-2021 00:49:03,17-Jan-2021 16:49:03,31.51247,-120.24802,093.3 070.0,093.3,070.0,473.000,476.849,,6.1288,,6.1283,,6.1286,34.2935,,34.2993,34.2872,,34.2892,34.2943,0.3037,,0.3178,0.3174,0.3072,,0.3243,0.3185,0.3180,13.205,14.0832,13.8954,13.358,15.1366,13.9442,13.9198,0.0326,,,, ,, , ,26.9834,,26.9784,,0.6755,84.4612,,,,1.5980E+02,,1.0000E-12,,6.0869,6.0864,0.8883,113.196,4.388,4.439,,,,,,,,,,,,
CalCOFI,2101RL,012,,2101_012u,18-Jan-2021 00:49:04,17-Jan-2021 16:49:04,31.51246,-120.24802,093.3 070.0,093.3,070.0,472.000,475.839,,6.1374,,6.1327,,6.1351,34.2932,,34.2990,34.2868,,34.2888,34.2939,0.3085,,0.3228,0.3224,0.3067,,0.3237,0.3179,0.3202,13.416,14.3041,14.1149,13.337,15.3712,13.9221,14.0185,0.0331,,,, ,, , ,26.9820,,26.9775,,0.6745,84.4811,,,,1.5935E+02,,1.0000E-12,,6.0956,6.0909,0.8883,113.319,4.459,4.432,,,,,,,,,,,,
CalCOFI,2101RL,012,,2101_012u,18-Jan-2021 00:49:05,17-Jan-2021 16:49:05,31.51246,-120.24802,093.3 070.0,093.3,070.0,471.000,474.830,,6.1472,,6.1453,,6.1463,34.2921,,34.2979,34.2863,,34.2883,34.2931,0.3109,,0.3253,0.3249,0.3124,,0.3298,0.3239,0.3244,13.521,14.4140,14.2241,13.587,15.4880,14.1855,14.2048,0.0325,,,, ,, , ,26.9799,,26.9755,,0.6741,84.4901,,,,1.5886E+02,,1.0000E-12,,6.1054,6.1035,0.8883,113.516,4.495,4.516,,,,,,,,,,,,
CalCOFI,2101RL,012,,2101_012u,18-Jan-2021 00:49:06,17-Jan-2021 16:49:06,31.51246,-120.24802,093.3 070.0,093.3,070.0,470.000,473.821,,6.1547,,6.1512,,6.1530,34.2918,,34.2976,34.2857,,34.2877,34.2927,0.3081,,0.3224,0.3220,0.3088,,0.3260,0.3201,0.3211,13.398,14.2852,14.0961,13.429,15.3512,14.0190,14.0576,0.0328,,,, ,, , ,26.9786,,26.9743,,0.6741,84.4900,,,,1.5887E+02,,1.0000E-12,,6.1130,6.1095,0.8883,113.625,4.455,4.464,,,,,,,,,,,,
CalCOFI,2101RL,012,,2101_012u,18-Jan-2021 00:49:06,17-Jan-2021 16:49:06,31.51247,-120.24802,093.3 070.0,093.3,070.0,469.000,472.812,,6.1623,,6.1624,,6.1624,34.2916,,34.2974,34.2859,,34.2879,34.2927,0.3066,,0.3208,0.3204,0.3152,,0.3328,0.3269,0.3237,13.334,14.2182,14.0296,13.708,15.2800,14.3131,14.1714,0.0323,,,, ,, , ,26.9775,,26.9730,,0.6741,84.4900,,,,1.5817E+02,,1.0000E-12,,6.1207,6.1208,0.8883,113.722,4.434,4.558,,,,,,,,,,,,
CalCOFI,2101RL,012,,2101_012u,18-Jan-2021 00:49:07,17-Jan-2021 16:49:07,31.51248,-120.24802,093.3 070.0,093.3,070.0,468.000,471.802,,6.1670,,6.1684,,6.1677,34.2917,,34.2975,34.2858,,34.2878,34.2927,0.3065,,0.3207,0.3203,0.3224,,0.3404,0.3345,0.3274,13.331,14.2151,14.0264,14.020,15.2767,14.6419,14.3342,0.0320,,,, ,, , ,26.9770,,26.9721,,0.6747,84.4774,,,,1.5702E+02,,1.0000E-12,,6.1254,6.1268,0.8883,113.767,4.434,4.663,,,,,,,,,,,,
CalCOFI,2101RL,012,,2101_012u,18-Jan-2021 00:49:08,17-Jan-2021 16:49:08,31.51248,-120.24802,093.3 070.0,093.3,070.0,467.000,470.793,,6.1680,,6.1725,,6.1703,34.2919,,34.2977,34.2858,,34.2878,34.2928,0.3067,,0.3209,0.3205,0.3164,,0.3340,0.3281,0.3243,13.337,14.2214,14.0327,13.758,15.2834,14.3657,14.1992,0.0335,,,, ,, , ,26.9770,,26.9716,,0.6742,84.4871,,,,1.5622E+02,,1.0000E-12,,6.1265,6.1310,0.8883,113.755,4.436,4.576,,,,,,,,,,,,
CalCOFI,2101RL,012,,2101_012u,18-Jan-2021 00:49:08,17-Jan-2021 16:49:08,31.51248,-120.24802,093.3 070.0,093.3,070.0,466.000,469.784,,6.1817,,6.1815,,6.1816,34.2922,,34.2980,34.2862,,34.2882,34.2931,0.3074,,0.3216,0.3212,0.3109,,0.3282,0.3224,0.3218,13.367,14.2528,14.0639,13.521,15.3167,14.1160,14.0900,0.0330,,,, ,, , ,26.9755,,26.9708,,0.6749,84.4739,,,,1.5519E+02,,1.0000E-12,,6.1402,6.1401,0.8883,113.895,4.447,4.498,,,,,,,,,,,,